Location: Arrakis Observatory
(44.1122°N, 95.7153°W)
Time: 11:28:10
(UTC-06:00)

Iridium 35 - Visible Passes

Search period start: 24 January 2017 00:00
Search period end: 03 February 2017 00:00
Orbit: 776 x 779 km, 86.4° (Epoch: 22 January)

Date Brightness Start Highest point End Pass type
(mag) Time Alt. Az. Time Alt. Az. Time Alt. Az.
24 Jan 7.2 04:34:28 18° SE 04:34:28 18° SE 04:35:49 10° SSE visible
24 Jan 7.0 06:15:03 12° SW 06:15:03 12° SW 06:15:29 10° SW visible
24 Jan 8.0 19:08:26 10° W 19:10:39 13° WNW 19:12:54 10° NW visible
25 Jan 7.5 18:32:43 10° SW 18:36:45 22° WNW 18:40:48 10° NNW visible
26 Jan 6.6 17:58:08 10° SSW 18:02:59 38° W 18:07:51 10° NNW visible
28 Jan 7.8 18:33:56 10° WSW 18:37:05 16° WNW 18:40:14 10° NW visible
29 Jan 7.2 17:58:48 10° SW 18:03:14 28° WNW 18:07:40 10° NNW visible
31 Jan 8.1 18:36:00 10° W 18:37:28 11° WNW 18:38:55 10° NW visible
01 Feb 7.7 17:59:45 10° WSW 18:03:31 20° WNW 18:07:18 10° NNW visible
